weather.gov     
National Weather Service

Regional Weather Roundup
NWS Homepage
This page is being discontinued on March 12, 2014.
The same data is available at this site. Please update your bookmarks.
Thank you, and we apologize for the inconvenience.
Please send an email to SR-SRH.Webmaster@noaa.gov with any concerns.


Current Version
Previous Version:    01  02  03  04  05  06  07  08  09  10  11  12  13  14  15  16  17  18  19  20  21  22  23  24  25  26  27  
[Printable]
180
ASUS46 KPQR 202210
RWROR

OREGON REGIONAL WEATHER ROUNDUP
NATIONAL WEATHER SERVICE PORTLAND OR
200 PM PST SAT DEC 20 2014

NOTE: "FAIR" INDICATES FEW OR NO CLOUDS BELOW 12,000 FEET WITH
NO SIGNIFICANT WEATHER AND/OR OBSTRUCTIONS TO VISIBILITY.

ORZ001>013-202300-
NORTHWEST OREGON


CITY           SKY/WX    TMP DP  RH WIND       PRES   REMARKS
ASTORIA        LGT RAIN  56  54  93 SW20G33   29.54S FOG
NEWPORT        DRZL/FOG  55  55 100 SW25      29.72S VSB 1
PORTLAND       LGT RAIN  53  51  93 S17       29.65F FOG
VANCOUVER WA   LGT RAIN  53  49  86 VRB5      29.64F FOG
SCAPPOOSE      LGT RAIN  51  49  92 SE10      29.60F
HILLSBORO      RAIN      51  50  96 S14G20    29.62F FOG
AURORA         LGT RAIN  52  50  93 S18G30    29.67R FOG
MCMINNVILLE    LGT RAIN  53  51  93 S14       29.64F FOG
SALEM          LGT RAIN  53  50  89 S21G31    29.67S FOG
CORVALLIS      CLOUDY    55  50  82 S21G26    29.70F
EUGENE         LGT RAIN  53  50  89 S17       29.75F FOG
$$

ORZ021-028-202300-
SOUTHWEST OREGON


CITY           SKY/WX    TMP DP  RH WIND       PRES   REMARKS
NORTH BEND     CLOUDY    57  57 100 S21G26    29.81S
BROOKINGS      RAIN      54  54 100 S15G28    29.96F VSB 1/2
ROSEBURG       LGT RAIN  56  51  84 S5        29.84R
SEXTON SUMMIT  LGT RAIN  44  44 100 S22G31    29.87F VSB<1/4
MEDFORD        LGT RAIN  48  46  93 CALM      29.93F FOG
$$

ORZ014>016-041-202300-
COLUMBIA GORGE


CITY           SKY/WX    TMP DP  RH WIND       PRES   REMARKS
TROUTDALE      LGT RAIN  46  43  89 E13       29.64F FOG
THE DALLES     LGT RAIN  43  41  93 CALM      29.70F
$$

ORZ029>031-041-044-049-050-061>064-502-503-505>511-202300-
EASTERN OREGON


CITY           SKY/WX    TMP DP  RH WIND       PRES   REMARKS
REDMOND        LGT RAIN  43  36  76 S24G32    29.74F
BEND           LGT RAIN  41  36  81 S8G21     29.77F
PRINEVILLE     CLOUDY    45  39  81 S12       29.77F
KLAMATH FALLS  LGT RAIN  42  39  89 N5        29.98R
LAKEVIEW       CLOUDY    37  34  87 S17G26    29.99F WCI  28
HERMISTON      LGT RAIN  48  44  86 CALM      29.70F
PENDLETON      LGT RAIN  47  41  80 S9        29.72F
JOHN DAY       RAIN      41  36  83 S21       29.83F
MEACHAM        RAIN      35  34  96 CALM      29.76F FOG
LA GRANDE      CLOUDY    41  32  70 S12       29.81F
BAKER CITY     CLOUDY    40  35  83 SE16      29.83F WCI  31
BURNS          RAIN      34  32  92 S5        29.91S FOG     WCI  30
ROME             N/A     41  36  82 S16       29.94F
ONTARIO        LGT RAIN  45  41  86 SE9       29.94F
$$




U.S. Dept. of Commerce
NOAA National Weather Service
1325 East West Highway
Silver Spring, MD 20910
E-mail: w-nws.webmaster@noaa.gov
Page last modified: May 16, 2007
NATIONAL WEATHER SERVICE: for Safety, for Work, for Fun - FOR LIFE